This demonstration page uses our WeatherBlox Daily Observations layout. Learn more.

Left ArrowRight Arrow

Hourly Observations for November 20, 2018

Temp ( °F °C ) Dew Point ( °F °C ) Humidity (%) Winds ( mph kmh ) Pressure ( in mb ) Visibility ( mi km ) Precip ( " mm )
12:57 am 00:57 Cloudy 27 -2.8 26 -3.3 96 96 SSW 5 7 30.33 1027 10 16 0.00 0.00
1:57 am 01:57 Cloudy 29 -1.7 27 -2.8 92 92 S 3 6 30.32 1027 10 16 0.00 0.00
2:57 am 02:57 Cloudy 28 -2.2 26 -3.3 92 92 SSE 6 9 30.32 1027 10 16 0.00 0.00
3:57 am 03:57 Clear 26 -3.3 25 -3.9 96 96 S 7 11 30.30 1026 10 16 0.00 0.00
4:57 am 04:57 Clear 26 -3.3 24 -4.4 92 92 S 7 11 30.29 1026 10 16 0.00 0.00
5:57 am 05:57 Clear 26 -3.3 24 -4.4 92 92 S 8 13 30.29 1026 10 16 0.00 0.00
6:57 am 06:57 Clear 25 -3.9 24 -4.4 96 96 SSW 9 15 30.28 1026 10 16 0.00 0.00
7:57 am 07:57 Sunny 27 -2.8 25 -3.9 92 92 SW 10 17 30.28 1025 10 16 0.00 0.00
8:57 am 08:57 Sunny 32 0 28 -2.2 85 85 SW 7 11 30.28 1025 10 16 0.00 0.00
9:57 am 09:57 Sunny 35 1.7 29 -1.7 78 78 SW 7 11 30.28 1025 10 16 0.00 0.00
10:57 am 10:57 Sunny 42 5.6 32 0 68 68 SW 8 13 30.27 1025 10 16 0.00 0.00
11:57 am 11:57 Sunny 47 8.3 34 1.1 61 61 SW 9 15 30.23 1024 10 16 0.00 0.00
12:57 pm 12:57 Sunny 53 11.7 34 1.1 48 48 WSW 12 19 30.18 1022 10 16 0.00 0.00
1:57 pm 13:57 Sunny 54 12.2 31 -0.6 42 42 WSW 15 24 30.16 1021 10 16 0.00 0.00
2:57 pm 14:57 Sunny 55 12.8 32 0 42 42 SW 16 26 30.14 1021 10 16 0.00 0.00
3:57 pm 15:57 Sunny 56 13.3 30 -1.1 37 37 WSW 14 22 30.14 1021 10 16 0.00 0.00
4:57 pm 16:57 Sunny 52 11.1 32 0 47 47 SW 8 13 30.15 1021 10 16 0.00 0.00
5:57 pm 17:57 Clear 47 8.3 32 0 56 56 WSW 5 7 30.16 1021 10 16 0.00 0.00
6:57 pm 18:57 Clear 38 3.3 30 -1.1 73 73 SW 7 11 30.18 1022 10 16 0.00 0.00
7:57 pm 19:57 Clear 37 2.8 30 -1.1 76 76 SSW 8 13 30.19 1022 10 16 0.00 0.00
8:57 pm 20:57 Clear 41 5 30 -1.1 65 65 WSW 8 13 30.17 1022 10 16 0.00 0.00
9:57 pm 21:57 Clear 35 1.7 29 -1.7 78 78 WSW 5 7 30.19 1022 10 16 0.00 0.00
10:57 pm 22:57 Clear 33 0.6 27 -2.8 78 78 W 6 9 30.18 1022 10 16 0.00 0.00
11:57 pm 23:57 Clear 31 -0.6 25 -3.9 79 79 NW 7 11 30.18 1022 10 16 0.00 0.00

Powered by AerisWeather